SCP
6 6 5 5 4 3 3 2 2 2 2 2 2 2 2 2 1 2 2 1 1 1 0 0 0 0 1 1 1 1 1 0 0 0 0 0 1 1
7 6 6 5 4 3 3 3 3 2 2 2 2 2 2 2 1 2 2 1 1 1 0 0 0 0 0 0 0 0 0 0 0 0 0 0 0 1
8 8 7 7 6 4 4 4 3 3 2 2 2 2 2 2 2 3 2 2 1 1 0 0 0 0 0 0 0 0 0 0 0 0 0 0 0 0
9 8 8 8 7 6 5 5 5 4 3 2 2 2 3 3 4 3 3 2 2 1 1 0 0 0 0 0 0 0 0 0 0 0 0 0 0 0
10 9 8 8 8 8 7 6 6 6 5 4 3 3 3 4 5 5 4 4 3 2 1 1 0 0 0 0 0 0 0 0 0 0 0 0 0 0
11 10 9 9 9 8 8 7 7 7 7 7 6 5 5 6 7 8 7 6 5 3 2 2 1 0 0 0 0 0 0 0 0 0 0 0 0 0
12 12 10 9 8 7 7 7 8 8 8 8 8 7 7 8 9 10 9 8 7 6 4 3 3 2 1 1 0 0 0 0 0 0 0 0 0 0
14 13 11 9 8 7 6 6 7 7 8 8 9 9 10 11 11 10 10 9 9 8 7 7 7 6 5 3 2 1 0 0 0 0 0 0 0 0
13 12 10 8 8 8 8 7 6 6 7 9 10 10 11 12 12 12 11 12 12 13 12 11 11 11 9 7 4 1 0 0 0 0 0 0 0 0
11 10 8 7 7 9 10 10 8 7 7 7 9 10 10 11 12 13 14 14 15 15 15 14 13 12 11 9 5 2 0 0 0 0 0 0 0 0
8 7 6 6 5 7 8 9 8 7 6 6 7 8 8 8 9 12 13 13 13 13 13 12 11 10 8 7 4 2 0 0 0 0 0 0 0 0
7 6 5 4 3 3 4 6 6 6 6 7 7 7 7 7 7 9 11 11 11 10 10 10 9 7 6 5 5 3 1 0 0 0 0 0 0 0
6 6 4 2 1 1 2 3 4 4 6 8 9 9 9 8 6 6 8 9 9 9 9 9 7 6 5 5 5 4 1 0 0 0 0 0 0 0
5 5 3 2 0 0 1 1 2 2 4 7 8 8 7 6 5 4 5 6 7 8 8 8 6 5 4 4 5 4 2 1 0 0 0 0 0 0
3 2 2 1 0 0 0 0 0 1 2 4 4 4 3 3 2 2 3 4 5 7 8 7 5 4 4 4 5 3 2 1 1 1 0 0 0 0
1 1 1 1 1 1 1 1 1 1 2 2 2 2 2 1 1 1 2 3 4 4 6 6 4 3 3 4 3 3 2 2 1 1 1 0 0 0
1 1 2 2 2 2 2 2 1 1 2 2 2 2 2 2 2 2 2 2 2 3 3 4 3 2 2 2 2 2 2 2 2 1 1 1 1 1
2 2 2 2 2 2 2 2 2 2 2 2 2 2 2 2 2 2 2 2 2 2 2 3 2 2 1 1 1 1 1 2 2 1 1 1 1 1
2 2 2 2 3 2 2 2 2 2 2 2 2 2 2 2 2 2 3 3 3 3 3 3 3 2 2 1 1 1 1 1 2 1 1 1 1 1
2 2 2 2 3 3 3 3 2 2 2 2 2 2 2 2 2 3 3 3 3 4 4 4 3 2 2 2 2 1 1 1 2 2 1 1 1 1
1 1 1 2 2 3 3 3 3 3 3 3 3 3 3 3 3 3 4 4 4 5 5 4 4 3 2 2 2 1 1 1 1 1 1 1 1 1
1 1 1 1 1 2 3 3 3 3 3 4 4 4 4 4 4 4 4 5 5 5 5 5 4 4 3 2 2 2 2 1 1 1 1 1 1 1
0 0 0 1 1 1 2 2 3 3 3 4 4 4 5 5 4 4 4 5 6 6 5 4 4 4 4 3 2 2 2 2 2 1 0 0 0 0
Wind_Speed
2 2 2 2 2 2 2 2 2 2 3 2 1 2 2 2 6 4 4 9 11 11 10 10 9 9 8 8 8 8 8 8 7 7 6 7 7 6
1 2 2 2 2 2 2 2 1 2 3 2 2 2 2 2 5 4 4 9 11 12 11 11 10 10 10 10 9 9 8 8 8 7 7 7 6 6
2 1 1 1 2 2 2 2 1 2 3 2 2 1 2 2 3 3 4 5 7 12 12 12 11 11 11 11 10 9 9 8 8 8 7 7 7 7
2 2 2 1 2 2 2 2 2 2 2 3 2 2 3 4 4 4 4 5 5 11 13 13 12 12 12 11 11 10 9 9 8 8 7 7 7 7
2 2 1 1 2 2 2 2 2 3 2 3 3 2 2 3 3 4 4 3 5 7 12 12 13 12 12 12 11 10 10 9 8 8 7 7 7 6
2 2 2 2 2 3 3 2 2 2 3 3 3 3 3 3 3 3 3 3 3 4 5 7 10 12 12 12 12 11 10 10 9 9 8 7 7 6
2 2 2 2 2 3 3 2 2 2 3 3 3 2 2 2 2 3 3 2 3 3 3 4 5 6 7 10 12 12 12 11 10 10 9 8 7 7
3 2 3 3 2 4 4 4 3 3 3 3 3 3 3 2 2 2 2 2 3 2 3 4 5 5 6 7 11 14 14 13 12 11 10 9 8 8
3 3 4 2 1 2 3 4 5 7 6 4 4 4 3 2 2 3 3 3 4 3 3 4 4 4 5 7 13 14 14 14 13 11 10 9 9 8
3 3 2 2 2 2 3 3 4 4 5 4 4 4 4 3 3 4 4 4 4 3 3 3 3 3 3 4 11 14 13 13 13 12 11 9 9 8
3 2 2 1 1 2 2 3 4 4 5 5 5 5 5 5 4 2 3 3 4 3 2 3 3 2 2 3 6 13 13 13 12 12 11 10 9 7
2 1 1 1 1 1 2 3 4 4 4 4 4 4 5 6 7 5 4 4 3 3 2 2 2 2 2 2 3 5 7 9 11 11 11 11 10 5
2 2 1 1 2 3 3 3 5 5 4 4 4 4 3 3 4 4 4 4 4 3 2 1 2 2 2 2 2 4 5 5 5 6 8 10 9 7
3 2 2 3 3 4 4 5 6 5 4 4 3 3 3 3 2 2 3 4 4 4 4 2 2 2 3 3 2 2 4 5 5 5 5 7 7 8
3 4 4 4 4 4 5 6 4 3 3 3 3 3 3 3 2 2 3 3 4 5 5 4 4 3 3 3 3 2 2 3 4 4 4 5 5 5
3 3 4 5 4 5 4 3 3 3 3 3 3 3 2 2 2 2 2 2 2 3 3 3 4 4 4 3 3 3 3 3 3 4 4 3 4 4
3 2 2 2 2 2 2 2 2 2 3 3 3 3 2 3 2 2 2 2 2 3 2 2 2 2 3 2 3 3 3 2 3 3 3 3 3 4
2 2 2 2 2 3 3 2 2 2 2 2 2 2 2 3 2 2 2 2 2 3 2 1 1 2 2 2 3 4 2 2 2 3 3 3 3 3
2 3 3 2 2 3 3 3 3 2 2 2 2 3 3 3 2 2 2 2 3 3 2 1 1 2 3 3 2 3 4 3 2 2 3 3 3 3
2 2 2 2 2 2 3 3 3 3 2 2 3 2 2 3 3 3 3 3 3 2 2 2 2 2 3 3 2 2 4 4 3 3 2 2 1 2
2 2 2 2 2 2 3 3 3 3 3 2 3 2 2 3 3 3 3 3 3 3 2 2 2 3 2 1 1 2 1 4 4 3 3 3 2 2
3 2 2 2 2 2 3 3 3 3 3 3 3 3 3 3 3 4 3 3 2 2 3 2 1 1 2 2 3 2 1 1 2 2 2 3 3 4
2 2 2 2 2 2 2 2 3 3 3 3 3 3 3 2 2 2 3 3 2 2 2 2 2 1 2 2 2 2 2 2 2 2 1 2 4 4
Wind_Direction
253 258 268 281 287 283 273 247 232 260 260 238 229 215 185 159 160 175 177 187 192 194 196 199 202 204 203 199 199 202 205 207 209 209 214 220 225 226
251 268 270 281 289 282 288 288 259 251 267 244 232 222 207 198 174 189 193 186 194 197 200 201 202 204 201 199 201 202 204 207 208 209 214 217 219 225
280 272 269 286 304 310 306 291 270 261 267 276 253 223 204 196 188 211 205 192 197 201 202 203 202 200 199 201 202 203 205 208 209 213 217 218 221 225
280 288 294 299 297 302 307 304 288 271 260 272 265 238 220 205 196 213 220 216 201 198 201 202 200 199 200 201 202 204 207 207 209 212 216 221 225 226
279 281 280 287 297 299 288 288 287 284 272 264 264 243 233 218 201 217 223 232 227 193 195 199 197 195 198 201 202 203 204 205 207 210 214 216 220 223
277 282 275 262 271 281 272 273 279 282 271 262 260 248 234 221 202 212 223 223 234 209 194 190 193 197 200 201 202 201 201 203 207 210 212 212 213 218
287 283 283 286 277 278 282 289 284 277 272 260 252 251 245 220 221 218 224 229 231 210 188 192 184 196 202 207 207 203 200 202 205 207 209 210 213 218
287 292 274 248 261 261 267 272 273 271 282 279 268 256 250 245 247 241 236 233 237 209 190 212 190 198 199 199 201 197 198 201 204 206 208 210 213 217
271 274 286 295 300 293 276 267 270 265 256 265 270 268 256 243 248 251 237 234 242 232 207 227 206 209 203 200 189 192 196 199 201 203 206 210 214 218
269 264 270 280 303 318 301 297 288 282 271 255 260 270 267 252 237 245 245 248 250 240 210 226 222 218 211 183 187 190 194 197 198 199 202 206 212 219
278 279 289 269 314 318 303 296 293 290 284 274 263 265 265 267 255 253 247 239 252 248 217 214 227 221 214 204 193 193 191 193 197 199 200 202 205 210
289 264 45 338 299 303 286 288 287 290 302 299 285 268 259 255 241 229 238 245 248 252 229 211 227 215 229 209 181 183 194 197 199 202 203 203 199 199
317 318 4 11 297 278 272 272 273 287 291 283 273 265 255 248 236 225 226 233 245 255 254 214 231 224 223 222 190 181 178 181 192 204 208 208 202 195
310 321 343 334 303 285 276 275 276 284 282 282 283 285 282 272 256 245 234 234 230 238 256 238 233 223 229 239 228 193 185 179 178 187 189 190 199 205
314 331 326 303 300 286 268 272 276 272 273 276 276 274 275 275 270 258 255 238 238 241 242 228 224 231 224 227 228 214 199 191 182 179 178 181 187 188
310 322 308 286 275 269 278 272 257 262 271 274 282 286 285 274 267 267 259 250 244 258 251 238 226 220 229 230 221 229 214 199 184 180 175 182 190 193
315 295 291 298 301 300 300 291 274 271 273 282 288 292 296 297 294 283 272 276 255 250 250 239 226 210 215 223 226 227 217 203 180 171 177 196 208 198
275 278 282 282 290 296 293 292 289 295 299 295 295 296 294 289 291 295 285 266 269 264 249 213 203 231 230 252 228 228 220 202 193 191 188 194 212 196
239 264 272 277 283 288 291 296 297 295 292 295 296 294 295 298 295 291 281 271 267 264 261 228 212 222 235 250 261 215 208 205 203 206 200 202 213 201
248 268 285 295 298 297 298 301 302 308 309 308 308 311 315 310 309 309 305 295 283 276 265 242 226 227 234 244 248 235 200 197 195 202 207 204 195 147
265 273 295 306 315 315 314 314 314 310 310 309 304 306 309 308 301 292 288 292 282 279 273 261 240 227 221 214 236 249 216 195 193 194 193 193 200 199
270 280 290 302 305 306 310 309 310 315 315 311 308 305 298 294 294 293 291 285 279 277 271 259 234 227 212 209 224 239 240 187 180 186 209 212 202 203
265 280 281 282 279 288 309 316 318 319 315 310 308 305 303 306 304 302 302 295 290 297 292 278 270 244 226 212 220 222 224 213 189 180 216 242 217 211